When you browse on this site, cookies collect data to enhance your experience and personalize the content and advertising you see.
Visit our Privacy Policy to learn more. By continuing to use the site, you agree to this use of cookies and data.
  • En España
  • Lista de países
  • Para 7 días
  • Temperatura del agua
  • El tiempo en el mapa
  • Informadores
  • user-avatar
    Iniciar sesión

    Tiempo cada hora Harare

    Hoy, 22 Octubre, Martes

    Tiempo Temperatura Precipitaciones Viento Presión Humedad
    00:00 +24°C° 0 mm 3 mps 637 mmHg 32%
    01:00 +22°C° 0 mm 3 mps 637 mmHg 35%
    02:00 +21°C° 0 mm 2 mps 636 mmHg 37%
    03:00 +21°C° 0 mm 2 mps 636 mmHg 39%
    04:00 +20°C° 0 mm 2 mps 636 mmHg 40%
    05:00 +20°C° 0 mm 2 mps 636 mmHg 42%
    06:00 +24°C° 0 mm 3 mps 637 mmHg 37%
    07:00 +26°C° 0 mm 3 mps 638 mmHg 32%
    08:00 +29°C° 0 mm 4 mps 639 mmHg 27%
    09:00 +32°C° 0 mm 4 mps 640 mmHg 22%
    10:00 +34°C° 0 mm 4 mps 640 mmHg 18%
    11:00 +37°C° 0 mm 4 mps 640 mmHg 13%
    12:00 +37°C° 0 mm 5 mps 640 mmHg 13%
    13:00 +37°C° 0 mm 5 mps 639 mmHg 12%
    14:00 +39°C° 0 mm 5 mps 639 mmHg 12%
    15:00 +36°C° 0 mm 5 mps 638 mmHg 13%
    16:00 +35°C° 0 mm 5 mps 638 mmHg 14%
    17:00 +34°C° 0 mm 5 mps 637 mmHg 16%
    18:00 +32°C° 0 mm 5 mps 637 mmHg 23%
    19:00 +29°C° 0 mm 5 mps 637 mmHg 30%
    20:00 +27°C° 0 mm 5 mps 637 mmHg 37%
    21:00 +26°C° 0 mm 5 mps 637 mmHg 46%
    22:00 +23°C° 0 mm 4 mps 637 mmHg 55%
    23:00 +22°C° 0 mm 4 mps 637 mmHg 65%

    Mañana, 23 Octubre, Miércoles

    Tiempo Temperatura Precipitaciones Viento Presión Humedad
    00:00 +21°C° 0 mm 4 mps 637 mmHg 67%
    01:00 +20°C° 0 mm 3 mps 637 mmHg 69%
    02:00 +19°C° 0 mm 3 mps 636 mmHg 71%
    03:00 +19°C° 0 mm 3 mps 636 mmHg 71%
    04:00 +19°C° 0 mm 4 mps 637 mmHg 70%
    05:00 +19°C° 0 mm 4 mps 637 mmHg 69%
    06:00 +21°C° 0 mm 5 mps 638 mmHg 59%
    07:00 +23°C° 0 mm 6 mps 639 mmHg 49%
    08:00 +26°C° 0 mm 6 mps 640 mmHg 39%
    09:00 +28°C° 0 mm 6 mps 640 mmHg 33%
    10:00 +32°C° 0 mm 5 mps 640 mmHg 28%
    11:00 +34°C° 0 mm 5 mps 640 mmHg 22%
    12:00 +35°C° 0 mm 5 mps 640 mmHg 21%
    13:00 +36°C° 0 mm 4 mps 639 mmHg 19%
    14:00 +37°C° 0 mm 4 mps 639 mmHg 17%
    15:00 +36°C° 0 mm 4 mps 638 mmHg 17%
    16:00 +35°C° 0 mm 4 mps 638 mmHg 18%
    17:00 +34°C° 0 mm 4 mps 637 mmHg 19%
    18:00 +32°C° 0 mm 4 mps 637 mmHg 23%
    19:00 +29°C° 0 mm 4 mps 637 mmHg 26%
    20:00 +27°C° 0 mm 3 mps 637 mmHg 30%
    21:00 +26°C° 0 mm 4 mps 637 mmHg 32%
    22:00 +26°C° 0 mm 4 mps 637 mmHg 34%
    23:00 +25°C° 0 mm 4 mps 637 mmHg 36%

    Pasado mañana, 24 Octubre, Jueves

    Tiempo Temperatura Precipitaciones Viento Presión Humedad
    00:00 +23°C° 0 mm 4 mps 637 mmHg 37%
    01:00 +23°C° 0 mm 4 mps 637 mmHg 38%
    02:00 +22°C° 0 mm 4 mps 637 mmHg 39%
    03:00 +22°C° 0 mm 4 mps 637 mmHg 42%
    04:00 +21°C° 0 mm 4 mps 637 mmHg 44%
    05:00 +21°C° 0 mm 4 mps 637 mmHg 46%
    06:00 +23°C° 0 mm 4 mps 638 mmHg 43%
    07:00 +26°C° 0 mm 4 mps 640 mmHg 39%
    08:00 +28°C° 0 mm 4 mps 641 mmHg 36%
    09:00 +32°C° 0 mm 4 mps 641 mmHg 29%
    10:00 +34°C° 0 mm 4 mps 641 mmHg 23%
    11:00 +36°C° 0 mm 4 mps 641 mmHg 17%
    12:00 +37°C° 0 mm 4 mps 641 mmHg 16%
    13:00 +38°C° 0 mm 4 mps 640 mmHg 14%
    14:00 +39°C° 0 mm 5 mps 639 mmHg 13%
    15:00 +37°C° 0 mm 5 mps 639 mmHg 14%
    16:00 +36°C° 0 mm 5 mps 638 mmHg 15%
    17:00 +35°C° 0 mm 5 mps 638 mmHg 16%
    18:00 +33°C° 0 mm 4 mps 638 mmHg 19%
    19:00 +30°C° 0 mm 4 mps 638 mmHg 23%
    20:00 +28°C° 0 mm 3 mps 638 mmHg 26%
    21:00 +27°C° 0 mm 4 mps 638 mmHg 28%
    22:00 +26°C° 0 mm 4 mps 638 mmHg 31%
    23:00 +25°C° 0 mm 4 mps 638 mmHg 33%

    25 Octubre, Viernes

    Tiempo Temperatura Precipitaciones Viento Presión Humedad
    00:00 +25°C° 0 mm 4 mps 638 mmHg 35%
    01:00 +23°C° 0 mm 4 mps 638 mmHg 37%
    02:00 +22°C° 0 mm 4 mps 637 mmHg 39%
    03:00 +22°C° 0 mm 4 mps 638 mmHg 42%
    04:00 +21°C° 0 mm 3 mps 638 mmHg 44%
    05:00 +21°C° 0 mm 3 mps 638 mmHg 46%
    06:00 +23°C° 0 mm 4 mps 639 mmHg 43%
    07:00 +26°C° 0 mm 5 mps 640 mmHg 40%
    08:00 +28°C° 0 mm 6 mps 641 mmHg 36%
    09:00 +30°C° 0 mm 5 mps 641 mmHg 31%
    10:00 +33°C° 0 mm 4 mps 641 mmHg 26%
    11:00 +35°C° 0 mm 4 mps 641 mmHg 20%
    12:00 +36°C° 0 mm 4 mps 641 mmHg 19%
    13:00 +36°C° 0 mm 4 mps 640 mmHg 17%
    14:00 +37°C° 0 mm 4 mps 640 mmHg 15%
    15:00 +36°C° 0 mm 4 mps 639 mmHg 16%
    16:00 +36°C° 0 mm 4 mps 639 mmHg 16%
    17:00 +35°C° 0 mm 4 mps 638 mmHg 17%
    18:00 +33°C° 0 mm 4 mps 638 mmHg 20%
    19:00 +29°C° 0 mm 3 mps 638 mmHg 23%
    20:00 +27°C° 0 mm 3 mps 638 mmHg 27%
    21:00 +26°C° 0 mm 3 mps 638 mmHg 28%
    22:00 +26°C° 0 mm 4 mps 638 mmHg 29%
    23:00 +25°C° 0 mm 4 mps 638 mmHg 31%

    26 Octubre, Sábado

    Tiempo Temperatura Precipitaciones Viento Presión Humedad
    00:00 +25°C° 0 mm 4 mps 638 mmHg 34%
    01:00 +23°C° 0 mm 4 mps 637 mmHg 37%
    02:00 +22°C° 0 mm 3 mps 637 mmHg 40%
    03:00 +22°C° 0 mm 4 mps 637 mmHg 42%
    04:00 +21°C° 0 mm 4 mps 638 mmHg 44%
    05:00 +21°C° 0 mm 4 mps 638 mmHg 46%
    06:00 +23°C° 0 mm 4 mps 639 mmHg 41%
    07:00 +27°C° 0 mm 4 mps 639 mmHg 36%
    08:00 +29°C° 0 mm 5 mps 640 mmHg 32%
    09:00 +32°C° 0 mm 4 mps 640 mmHg 27%
    10:00 +34°C° 0 mm 4 mps 641 mmHg 23%
    11:00 +36°C° 0 mm 3 mps 641 mmHg 19%
    12:00 +37°C° 0 mm 3 mps 640 mmHg 17%
    13:00 +38°C° 0 mm 3 mps 640 mmHg 15%
    14:00 +39°C° 0 mm 3 mps 639 mmHg 13%
    15:00 +38°C° 0 mm 3 mps 639 mmHg 14%
    16:00 +37°C° 0 mm 3 mps 638 mmHg 15%
    17:00 +36°C° 0 mm 3 mps 638 mmHg 15%
    18:00 +33°C° 0 mm 3 mps 637 mmHg 19%
    19:00 +30°C° 0 mm 3 mps 637 mmHg 22%
    20:00 +27°C° 0 mm 3 mps 637 mmHg 25%
    21:00 +27°C° 0 mm 3 mps 637 mmHg 26%
    22:00 +26°C° 0 mm 3 mps 637 mmHg 28%
    23:00 +25°C° 0 mm 4 mps 637 mmHg 30%

    27 Octubre, Domingo

    Tiempo Temperatura Precipitaciones Viento Presión Humedad
    00:00 +25°C° 0 mm 4 mps 637 mmHg 31%
    01:00 +25°C° 0 mm 4 mps 636 mmHg 33%
    02:00 +23°C° 0 mm 5 mps 636 mmHg 35%
    03:00 +23°C° 0 mm 4 mps 636 mmHg 37%
    04:00 +22°C° 0 mm 4 mps 636 mmHg 38%
    05:00 +21°C° 0 mm 4 mps 637 mmHg 39%
    06:00 +25°C° 0 mm 5 mps 637 mmHg 36%
    07:00 +27°C° 0 mm 5 mps 638 mmHg 32%
    08:00 +29°C° 0 mm 5 mps 639 mmHg 28%
    09:00 +32°C° 0 mm 5 mps 639 mmHg 25%
    10:00 +34°C° 0 mm 4 mps 640 mmHg 22%
    11:00 +36°C° 0 mm 4 mps 640 mmHg 19%
    12:00 +36°C° 0 mm 4 mps 639 mmHg 18%
    13:00 +37°C° 0 mm 3 mps 639 mmHg 16%
    14:00 +38°C° 0 mm 3 mps 638 mmHg 15%
    15:00 +37°C° 0 mm 3 mps 638 mmHg 15%
    16:00 +36°C° 0 mm 4 mps 637 mmHg 16%
    17:00 +36°C° 0 mm 4 mps 636 mmHg 16%
    18:00 +33°C° 0 mm 3 mps 636 mmHg 19%
    19:00 +30°C° 0 mm 3 mps 636 mmHg 22%
    20:00 +27°C° 0 mm 3 mps 636 mmHg 25%
    21:00 +26°C° 0 mm 3 mps 636 mmHg 26%
    22:00 +26°C° 0 mm 3 mps 635 mmHg 26%
    23:00 +25°C° 0 mm 3 mps 635 mmHg 27%

    28 Octubre, Lunes

    Tiempo Temperatura Precipitaciones Viento Presión Humedad
    00:00 +24°C° 0 mm 3 mps 635 mmHg 28%
    01:00 +24°C° 0 mm 3 mps 635 mmHg 28%
    02:00 +24°C° 0 mm 3 mps 635 mmHg 28%
    03:00 +22°C° 0 mm 3 mps 635 mmHg 30%
    04:00 +21°C° 0 mm 3 mps 635 mmHg 31%
    05:00 +21°C° 0 mm 3 mps 635 mmHg 33%
    06:00 +24°C° 0 mm 3 mps 636 mmHg 29%
    07:00 +27°C° 0 mm 4 mps 637 mmHg 25%
    08:00 +30°C° 0 mm 5 mps 638 mmHg 22%
    09:00 +33°C° 0 mm 4 mps 638 mmHg 19%
    10:00 +35°C° 0 mm 3 mps 638 mmHg 17%
    11:00 +37°C° 0 mm 3 mps 639 mmHg 15%
    12:00 +38°C° 0 mm 2 mps 638 mmHg 14%
    13:00 +39°C° 0 mm 2 mps 638 mmHg 13%
    14:00 +40°C° 0 mm 2 mps 637 mmHg 12%
    15:00 +39°C° 0 mm 2 mps 636 mmHg 13%
    16:00 +38°C° 0 mm 3 mps 636 mmHg 13%
    17:00 +37°C° 0 mm 3 mps 635 mmHg 14%
    18:00 +34°C° 0 mm 2 mps 635 mmHg 17%
    19:00 +31°C° 0 mm 2 mps 635 mmHg 20%
    20:00 +29°C° 0 mm 2 mps 635 mmHg 22%
    21:00 +27°C° 0 mm 2 mps 635 mmHg 23%
    22:00 +26°C° 0 mm 2 mps 635 mmHg 23%
    23:00 +25°C° 0 mm 2 mps 634 mmHg 23%
    Mostrar más